Regional Weather Roundup
Issued by NWS

Home | Current Version | Previous Version | Graphics & Text | Print | Product List | Glossary On
Versions: 1 2 3 4 5 6 7 8 9 10 11 12 13 14 15 16 17 18 19 20 21 22 23 24 25 26 27 28 29 30 31 32 33 34 35 36 37 38 39 40 41 42 43 44 45 46 47 48 49 50
000
ASUS43 KMPX 201701
RWRMN
WEATHER ROUNDUP FOR MINNESOTA
NATIONAL WEATHER SERVICE TWIN CITIES/CHANHASSEN MN
1200 PM CDT WED SEP 20 2017


NOTE: "FAIR" INDICATES FEW OR NO CLOUDS BELOW 12,000 FEET WITH NO
SIGNIFICANT WEATHER AND/OR OBSTRUCTIONS TO VISIBILITY. N/A MEANS
CURRENT SKY AND/OR WEATHER CONDITIONS ARE NOT AVAILABLE.

MNZ060>063-068>070-201800-
   Twin Cities Metro

CITY           SKY/WX    TMP DP  RH WIND       PRES   REMARKS
TWIN CITIES    MOSUNNY   72  58  61 NW13      29.77R
ST PAUL        MOSUNNY   69  60  73 NW14      29.77R
CRYSTAL        SUNNY     70  54  56 W14       29.76R
BLAINE         MOSUNNY   72  59  64 W14       29.76R
LAKEVILLE      SUNNY     70  57  64 W9        29.78R
EDEN PRAIRIE   SUNNY     71  56  58 NW14      29.77R
SOUTH ST PAUL  MOSUNNY   71  57  62 NW9       29.77R
LAKE ELMO      PTSUNNY   70  61  73 W15       29.79R
$$
MNZ001>005-007-008-013>017-022>024-027-028-201800-
   Northwest Minnesota

CITY           SKY/WX    TMP DP  RH WIND       PRES   REMARKS
BEMIDJI        PTSUNNY   60  48  63 W14       29.74R
HALLOCK        CLOUDY    64  43  45 W18G25    29.64S
ROSEAU         SUNNY     63  50  63 SW15      29.66R
WARROAD        SUNNY     61  52  72 SW10      29.67R
CROOKSTON      SUNNY     63  48  59 W12       29.71S
FOSSTON        SUNNY     61  50  67 SW14      29.74R
DETROIT LAKES  SUNNY     61  46  59 W9        29.78R
MOORHEAD       SUNNY     64  45  48 W9        29.76R
PARK RAPIDS    MOSUNNY   63  47  55 W17       29.76R
MAHNOMEN       FAIR      60  49  65 W13       29.75R
$$
MNZ006-009>011-018-025>026-201800-
   North Central Minnesota

CITY           SKY/WX    TMP DP  RH WIND       PRES   REMARKS
BAUDETTE       MOSUNNY   61  50  67 W14G22    29.66R
FLAG ISLAND    SUNNY     61  46  59 W18G24    29.62R
INTL FALLS     CLOUDY    61  54  77 W10       29.66R
WASKISH        PTSUNNY   61  54  77 W16       29.70R
BIG FORK       MOSUNNY   64  54  68 W7G17     29.70R
LONGVILLE      MOSUNNY   64  54  68 SW9       29.74R
GRAND RAPIDS   PTSUNNY   64  54  69 W13       29.74R
CRANE LAKE     DRIZZLE   61  59  94 CALM      29.67R
ORR            CLOUDY    63  55  77 W5        29.66R
COOK           PTSUNNY   63  59  88 W9        29.69R
WALKER         FAIR      61  49  63 W14G21    29.75R
$$
MNZ012-019>021-037-201800-
   Northeast Minnesota

CITY           SKY/WX    TMP DP  RH WIND       PRES   REMARKS
DULUTH         CLOUDY    63  61  93 W14G26    29.71R
ELY            CLOUDY    64  63  94 S9        29.66R
HIBBING        CLOUDY    63  59  87 VRB5      29.70R
EVELETH        PTSUNNY   63  61  95 W10       29.71R
DULUTH HARBOR  CLOUDY    68  64  88 W20G28    29.69R
TWO HARBORS    MOSUNNY   70  64  83 W3        29.67R
SILVER BAY     CLOUDY    64  64 100 CALM      29.67R
$$
MNZ029>031-032-039>041-046>048-054>057-064-201800-
   West Central Minnesota

CITY           SKY/WX    TMP DP  RH WIND       PRES   REMARKS
FERGUS FALLS   SUNNY     63  46  55 W14       29.78S
WHEATON        SUNNY     66  39  37 W12       29.80S
MORRIS         SUNNY     64  48  55 NW10      29.80R
ALEXANDRIA     MOSUNNY   64  49  57 MISG      29.81R
ELBOW LAKE     FAIR      61  47  60 NW10      29.79R
WADENA         SUNNY     63  48  59 W7        29.77R
GLENWOOD       SUNNY     63  48  59 NW13      29.81R
APPLETON       SUNNY     66  45  45 NW10      29.81R
BENSON         SUNNY     66  45  45 N14       29.82R
ORTONVILLE     SUNNY     66  43  42 NW8       29.81R
MADISON        SUNNY     66  48  52 NW8       29.82R
WILLMAR        FAIR      66  48  52 NW12      29.82R
$$
MNZ033>034-036-042>043-049>051-058-059-201800-
   Central Minnesota

CITY           SKY/WX    TMP DP  RH WIND       PRES   REMARKS
ST CLOUD       MOSUNNY   66  54  65 NW15      29.77R
SAUK CENTRE    FAIR      63  48  58 W15       29.79S
PAYNESVILLE    SUNNY     65  50  58 NW10G18   29.80R
AITKIN         MOSUNNY   64  55  72 W9        29.74R
PINE RIVER     SUNNY     61  48  63 W8G16     29.79R
BRAINERD       SUNNY     64  49  57 W12       29.76R
STAPLES          N/A     64 N/A N/A W15       29.77R
LONG PRAIRIE   FAIR      63  46  55 W12       29.79S
LITTLE FALLS   SUNNY     64  43  45 W8        29.77S
LITCHFIELD     SUNNY     66  54  63 W9        29.80R
BUFFALO        SUNNY     69  53  57 W13G20    29.79R
MAPLE LAKE     SUNNY     68  57  67 W13G18    29.80R
HUTCHINSON     SUNNY     68  55  62 W13       29.82R
$$
MNZ037-044-045-052-053-201800-
   East Central Minnesota

CITY           SKY/WX    TMP DP  RH WIND       PRES   REMARKS
PRINCETON      SUNNY     70  55  60 W14       29.77R
MORA           MOSUNNY   68  55  64 NW12      29.77R
RUSH CITY      MOSUNNY   69  59  71 W6        29.75R
MOOSE LAKE     MOSUNNY   68  59  73 W8        29.72R
HINCKLEY       FAIR      70  61  73 W8        29.74R
CLOQUET        CLOUDY    64  57  77 W8        29.72R
MCGREGOR       SUNNY     64  55  72 W8G17     29.74R
$$
MNZ071>073-080-081-089-090-097-098-201800-
   Southwest Minnesota

CITY           SKY/WX    TMP DP  RH WIND       PRES   REMARKS
MONTEVIDEO     SUNNY     68  52  56 N8        29.82R
GRANITE FALLS  SUNNY     66  50  56 NW9       29.84R
CANBY          SUNNY     66  49  53 NW7       29.84R
MARSHALL       SUNNY     65  49  56 NW9       29.84R
REDWOOD FALLS  SUNNY     67  48  50 NW13G18   29.82R
OLIVIA         SUNNY     66  52  59 NW15      29.81R
PIPESTONE      SUNNY     64  48  55 W10       29.85R
WORTHINGTON    SUNNY     65  50  58 W12       29.85R
JACKSON        SUNNY     66  52  59 NW10G20   29.83S
TRACY          SUNNY     66  52  60 NW10      29.84R
SLAYTON        SUNNY     63  49  61 NW13      29.85R
$$
MNZ065>067-074>077-082>085-091>093-201800-
   South Central Minnesota

CITY           SKY/WX    TMP DP  RH WIND       PRES   REMARKS
MANKATO        SUNNY     69  55  60 NW14G20   29.81
NEW ULM        SUNNY     66  54  63 NW12      29.81R
ST JAMES       SUNNY     68  54  60 NW13G18   29.83R
FAIRMONT       SUNNY     70  53  54 NW16      29.82R
GLENCOE        SUNNY     69  58  69 W12G18    29.80R
FARIBAULT      SUNNY     72  57  60 W13       29.80R
OWATONNA       SUNNY     72  59  64 W14G20    29.80R
WASECA         SUNNY     72  57  60 W13G18    29.82R
ALBERT LEA     SUNNY     75  59  57 NW10      29.79R
$$
MNZ078>079-086>088-094>096-201800-
   Southeast Minnesota

CITY           SKY/WX    TMP DP  RH WIND       PRES   REMARKS
ROCHESTER      PTSUNNY   76  68  76 SW10      29.77R
RED WING       CLOUDY    73  61  64 NW13G18   29.74R
STANTON        MOSUNNY   72  58  60 W14       29.77R
DODGE CENTER   CLOUDY    72  61  68 W12       29.79R
WINONA         MOSUNNY   81  68  65 SW6       29.74S
AUSTIN         MOSUNNY   73  63  68 W14       29.78R
PRESTON        PTSUNNY   76  67  75 S13       29.77S
$$
ABBREVIATIONS USED IN REMARKS
   TC - TEMPERATURES IN CELSIUS
  WCI - WIND CHILL INDEX
   HX - HEAT INDEX
  VSB - VISIBILITY
$$



USA.gov is the U.S. government's official web portal to all federal, state and local government web resources and services.